Time,TemperatureF,DewpointF,PressureIn,WindDirection,WindDirectionDegrees,WindSpeedMPH,WindSpeedGustMPH,Humidity,HourlyPrecipIn,Conditions,Clouds,dailyrainin,SoftwareType,DateUTC
2013-07-11 00:01:00,65.7,65.7,29.90,East,90,0.0,0.0,100,0.00,-RA,,0.00,WeatherDisplay:10.37,2013-07-11 04:01:00,
2013-07-11 00:02:00,65.7,65.7,29.89,East,90,0.0,0.0,100,0.00,-RA,,0.00,WeatherDisplay:10.37,2013-07-11 04:02:00,
2013-07-11 00:03:00,65.7,65.7,29.89,East,90,0.0,0.0,100,0.00,-RA,,0.00,WeatherDisplay:10.37,2013-07-11 04:03:00,
2013-07-11 00:04:00,65.7,65.7,29.89,East,90,0.0,0.0,100,0.00,-RA,,0.00,WeatherDisplay:10.37,2013-07-11 04:04:00,
2013-07-11 00:06:00,65.7,65.7,29.89,East,90,1.6,4.4,100,0.00,-RA,,0.00,WeatherDisplay:10.37,2013-07-11 04:06:00,
2013-07-11 00:11:00,65.5,65.5,29.89,East,90,0.0,0.0,100,0.00,-RA,,0.00,WeatherDisplay:10.37,2013-07-11 04:11:00,
2013-07-11 00:16:00,65.3,65.3,29.90,East,90,2.6,4.6,100,0.00,-RA,,0.00,WeatherDisplay:10.37,2013-07-11 04:16:00,
2013-07-11 00:21:00,65.3,65.3,29.90,East,90,0.0,0.0,100,0.00,-RA,,0.00,WeatherDisplay:10.37,2013-07-11 04:21:00,
2013-07-11 00:26:00,65.3,65.3,29.90,East,90,0.0,0.0,100,0.00,-RA,,0.00,WeatherDisplay:10.37,2013-07-11 04:26:00,
2013-07-11 00:31:00,65.3,65.3,29.90,East,90,0.0,0.0,100,0.00,-RA,,0.00,WeatherDisplay:10.37,2013-07-11 04:31:00,
2013-07-11 00:36:00,65.3,65.3,29.90,East,90,0.0,0.0,100,0.00,-RA,,0.00,WeatherDisplay:10.37,2013-07-11 04:36:00,
2013-07-11 00:41:00,65.3,65.3,29.90,East,90,0.0,0.0,100,0.00,-RA,,0.00,WeatherDisplay:10.37,2013-07-11 04:41:00,
2013-07-11 00:46:00,65.3,65.3,29.90,East,90,0.0,0.0,100,0.00,-RA,,0.00,WeatherDisplay:10.37,2013-07-11 04:46:00,
2013-07-11 00:51:00,65.3,65.3,29.90,East,90,0.0,0.0,100,0.00,-RA,,0.00,WeatherDisplay:10.37,2013-07-11 04:51:00,
2013-07-11 00:56:00,65.3,65.3,29.90,East,90,0.0,0.0,100,0.00,-RA,,0.00,WeatherDisplay:10.37,2013-07-11 04:56:00,
2013-07-11 01:01:00,65.5,65.5,29.90,East,90,0.0,0.0,100,0.00,-RA,,0.00,WeatherDisplay:10.37,2013-07-11 05:01:00,
2013-07-11 01:06:00,65.3,65.3,29.90,East,90,0.0,0.0,100,0.00,-RA,,0.00,WeatherDisplay:10.37,2013-07-11 05:06:00,
2013-07-11 01:11:00,65.1,65.1,29.90,East,90,0.0,0.0,100,0.00,-RA,,0.00,WeatherDisplay:10.37,2013-07-11 05:11:00,
2013-07-11 01:16:00,65.1,65.1,29.91,East,90,0.0,0.0,100,0.00,-RA,,0.00,WeatherDisplay:10.37,2013-07-11 05:16:00,
2013-07-11 01:21:00,65.1,65.1,29.91,East,90,0.0,0.0,100,0.00,-RA,,0.00,WeatherDisplay:10.37,2013-07-11 05:21:00,
2013-07-11 01:26:00,65.1,65.1,29.91,East,90,0.0,0.0,100,0.00,-RA,,0.00,WeatherDisplay:10.37,2013-07-11 05:26:00,
2013-07-11 01:31:00,65.1,65.1,29.91,East,90,0.0,0.0,100,0.00,-RA,,0.00,WeatherDisplay:10.37,2013-07-11 05:31:00,
2013-07-11 01:36:00,65.1,65.1,29.91,East,90,0.0,0.0,100,0.00,-RA,,0.00,WeatherDisplay:10.37,2013-07-11 05:36:00,
2013-07-11 01:41:00,65.1,65.1,29.91,East,90,0.0,0.0,100,0.00,-RA,,0.00,WeatherDisplay:10.37,2013-07-11 05:41:00,
2013-07-11 01:46:00,64.9,64.9,29.91,East,90,0.0,0.0,100,0.00,-RA,,0.00,WeatherDisplay:10.37,2013-07-11 05:46:00,
2013-07-11 01:52:00,64.9,64.9,29.91,East,90,0.0,0.0,100,0.00,-RA,,0.00,WeatherDisplay:10.37,2013-07-11 05:52:00,
2013-07-11 01:57:00,64.9,64.9,29.91,East,90,0.0,0.0,100,0.00,-RA,,0.00,WeatherDisplay:10.37,2013-07-11 05:57:00,
2013-07-11 02:02:00,64.9,64.9,29.91,East,90,0.0,0.0,100,0.00,-RA,,0.00,WeatherDisplay:10.37,2013-07-11 06:02:00,
2013-07-11 02:07:00,64.9,64.9,29.92,East,90,0.0,0.0,100,0.00,-RA,,0.00,WeatherDisplay:10.37,2013-07-11 06:07:00,
2013-07-11 02:12:00,64.8,64.8,29.92,East,90,0.0,0.0,100,0.00,-RA,,0.00,WeatherDisplay:10.37,2013-07-11 06:12:00,
2013-07-11 02:17:00,65.3,65.3,29.91,East,90,3.2,3.6,100,0.00,-RA,,0.00,WeatherDisplay:10.37,2013-07-11 06:17:00,
2013-07-11 02:22:00,65.3,65.3,29.91,East,90,1.7,5.8,100,0.00,-RA,,0.00,WeatherDisplay:10.37,2013-07-11 06:22:00,
2013-07-11 02:27:00,65.5,65.5,29.91,East,90,0.0,0.0,100,0.00,-RA,,0.00,WeatherDisplay:10.37,2013-07-11 06:27:00,
2013-07-11 02:32:00,65.5,65.5,29.92,East,90,0.0,0.0,100,0.00,-RA,,0.00,WeatherDisplay:10.37,2013-07-11 06:32:00,
2013-07-11 02:37:00,65.5,65.5,29.92,East,90,0.0,0.0,100,0.00,-RA,,0.00,WeatherDisplay:10.37,2013-07-11 06:37:00,
2013-07-11 02:42:00,65.7,65.7,29.92,East,90,0.0,0.0,100,0.00,-RA,,0.00,WeatherDisplay:10.37,2013-07-11 06:42:00,
2013-07-11 02:47:00,65.7,65.7,29.92,East,90,0.0,0.0,100,0.00,-RA,,0.00,WeatherDisplay:10.37,2013-07-11 06:47:00,
2013-07-11 02:52:00,65.7,65.7,29.92,East,90,0.0,0.0,100,0.00,-RA,,0.00,WeatherDisplay:10.37,2013-07-11 06:52:00,
2013-07-11 02:57:00,65.7,65.7,29.92,East,90,0.0,0.0,100,0.00,-RA,,0.00,WeatherDisplay:10.37,2013-07-11 06:57:00,
2013-07-11 03:02:00,65.7,65.7,29.92,East,90,3.4,3.6,100,0.00,-RA,,0.00,WeatherDisplay:10.37,2013-07-11 07:02:00,
2013-07-11 03:07:00,65.5,65.5,29.92,WNW,292,2.6,3.5,100,0.00,-RA,,0.00,WeatherDisplay:10.37,2013-07-11 07:07:00,
2013-07-11 03:12:00,65.5,65.5,29.92,WNW,292,0.0,2.3,100,0.00,-RA,,0.00,WeatherDisplay:10.37,2013-07-11 07:12:00,
2013-07-11 03:17:00,65.5,65.5,29.93,WNW,292,0.0,0.0,100,0.00,-RA,,0.00,WeatherDisplay:10.37,2013-07-11 07:17:00,
2013-07-11 03:22:00,65.5,65.5,29.93,WNW,292,0.0,0.0,100,0.00,-RA,,0.00,WeatherDisplay:10.37,2013-07-11 07:22:00,
2013-07-11 03:27:00,65.5,65.5,29.93,WNW,292,0.0,0.0,100,0.00,-RA,,0.00,WeatherDisplay:10.37,2013-07-11 07:27:00,
2013-07-11 03:32:00,65.5,65.5,29.93,WNW,292,0.0,0.0,100,0.00,-RA,,0.00,WeatherDisplay:10.37,2013-07-11 07:32:00,
2013-07-11 03:37:00,65.5,65.5,29.93,WNW,292,1.3,2.7,100,0.00,-RA,,0.00,WeatherDisplay:10.37,2013-07-11 07:37:00,
2013-07-11 03:42:00,65.5,65.5,29.94,WNW,292,0.5,1.9,100,0.00,-RA,,0.00,WeatherDisplay:10.37,2013-07-11 07:42:00,
2013-07-11 03:47:00,65.5,65.5,29.94,WNW,292,0.0,0.0,100,0.00,-RA,,0.00,WeatherDisplay:10.37,2013-07-11 07:47:00,
2013-07-11 03:52:00,65.5,65.5,29.93,WNW,292,0.0,0.0,100,0.00,-RA,,0.00,WeatherDisplay:10.37,2013-07-11 07:52:00,
2013-07-11 03:57:00,65.5,65.5,29.93,WNW,292,0.0,0.0,100,0.00,-RA,,0.00,WeatherDisplay:10.37,2013-07-11 07:57:00,
2013-07-11 04:02:00,65.5,65.5,29.93,WNW,292,0.0,0.0,100,0.00,-RA,,0.00,WeatherDisplay:10.37,2013-07-11 08:02:00,
2013-07-11 04:07:00,65.5,65.5,29.93,WNW,292,0.0,0.0,100,0.00,-RA,,0.00,WeatherDisplay:10.37,2013-07-11 08:07:00,
2013-07-11 04:12:00,65.5,65.5,29.93,WNW,292,0.0,0.0,100,0.00,-RA,,0.00,WeatherDisplay:10.37,2013-07-11 08:12:00,
2013-07-11 04:17:00,65.5,65.5,29.93,WNW,292,0.0,0.0,100,0.00,-RA,,0.00,WeatherDisplay:10.37,2013-07-11 08:17:00,
2013-07-11 04:22:00,65.5,65.5,29.93,WNW,292,0.0,0.0,100,0.00,-RA,,0.00,WeatherDisplay:10.37,2013-07-11 08:22:00,
2013-07-11 04:27:00,65.5,65.5,29.93,WNW,292,0.0,0.0,100,0.00,-RA,,0.00,WeatherDisplay:10.37,2013-07-11 08:27:00,
2013-07-11 04:32:00,65.3,65.3,29.93,WNW,292,0.0,0.0,100,0.00,-RA,,0.00,WeatherDisplay:10.37,2013-07-11 08:32:00,
2013-07-11 04:37:00,65.3,65.3,29.93,WNW,292,0.0,0.0,100,0.00,-RA,,0.00,WeatherDisplay:10.37,2013-07-11 08:37:00,
2013-07-11 04:42:00,65.1,65.1,29.94,WNW,292,0.0,0.0,100,0.00,-RA,,0.00,WeatherDisplay:10.37,2013-07-11 08:42:00,
2013-07-11 04:47:00,65.1,65.1,29.94,WNW,292,0.0,0.0,100,0.00,-RA,,0.00,WeatherDisplay:10.37,2013-07-11 08:47:00,
2013-07-11 04:52:00,65.1,65.1,29.94,WNW,292,0.0,0.0,100,0.00,-RA,,0.00,WeatherDisplay:10.37,2013-07-11 08:52:00,
2013-07-11 04:57:00,65.1,65.1,29.94,WNW,292,2.7,4.6,100,0.00,-RA,,0.00,WeatherDisplay:10.37,2013-07-11 08:57:00,
2013-07-11 05:02:00,65.1,65.1,29.94,WNW,292,0.0,0.0,100,0.00,-RA,,0.00,WeatherDisplay:10.37,2013-07-11 09:02:00,
2013-07-11 05:07:00,65.1,65.1,29.94,WNW,292,0.0,0.0,100,0.00,-RA,,0.00,WeatherDisplay:10.37,2013-07-11 09:07:00,
2013-07-11 05:12:00,65.1,65.1,29.94,WNW,292,0.0,0.0,100,0.00,-RA,,0.00,WeatherDisplay:10.37,2013-07-11 09:12:00,
2013-07-11 05:17:00,65.1,65.1,29.94,WNW,292,0.0,0.0,100,0.00,-RA,,0.00,WeatherDisplay:10.37,2013-07-11 09:17:00,
2013-07-11 05:22:00,65.1,65.1,29.94,WNW,292,0.0,0.0,100,0.00,-RA,,0.00,WeatherDisplay:10.37,2013-07-11 09:22:00,
2013-07-11 05:27:00,65.3,65.3,29.94,WNW,292,0.0,0.0,100,0.00,-RA,,0.00,WeatherDisplay:10.37,2013-07-11 09:27:00,
2013-07-11 05:32:00,65.3,65.3,29.95,WNW,292,0.0,0.0,100,0.00,-RA,,0.00,WeatherDisplay:10.37,2013-07-11 09:32:00,
2013-07-11 05:37:00,65.3,65.3,29.95,WNW,292,0.0,0.0,100,0.00,-RA,,0.00,WeatherDisplay:10.37,2013-07-11 09:37:00,
2013-07-11 05:42:00,65.3,65.3,29.95,WNW,292,0.0,0.0,100,0.00,-RA,,0.00,WeatherDisplay:10.37,2013-07-11 09:42:00,
2013-07-11 05:47:00,65.3,65.3,29.95,WNW,292,0.0,0.0,100,0.00,-RA,,0.00,WeatherDisplay:10.37,2013-07-11 09:47:00,
2013-07-11 05:52:00,65.3,65.3,29.95,WNW,292,0.0,0.0,100,0.00,-RA,,0.00,WeatherDisplay:10.37,2013-07-11 09:52:00,
2013-07-11 05:57:00,65.3,65.3,29.96,WNW,292,0.6,2.7,100,0.00,-RA,,0.00,WeatherDisplay:10.37,2013-07-11 09:57:00,
2013-07-11 06:02:00,65.1,65.1,29.96,WNW,292,0.0,0.0,100,0.00,-RA,,0.00,WeatherDisplay:10.37,2013-07-11 10:02:00,
2013-07-11 06:07:00,65.1,65.1,29.96,WNW,292,0.0,2.3,100,0.00,-RA,,0.00,WeatherDisplay:10.37,2013-07-11 10:07:00,
2013-07-11 06:12:00,65.1,65.1,29.96,WNW,292,0.0,0.0,100,0.00,-RA,,0.00,WeatherDisplay:10.37,2013-07-11 10:12:00,
2013-07-11 06:17:00,65.1,65.1,29.96,WNW,292,0.0,0.0,100,0.00,-RA,,0.00,WeatherDisplay:10.37,2013-07-11 10:17:00,
2013-07-11 06:22:00,65.1,65.1,29.96,WNW,292,0.0,0.0,100,0.00,-RA,,0.00,WeatherDisplay:10.37,2013-07-11 10:22:00,
2013-07-11 06:27:00,65.1,65.1,29.96,WNW,292,0.0,0.0,100,0.00,-RA,,0.00,WeatherDisplay:10.37,2013-07-11 10:27:00,
2013-07-11 06:32:00,65.1,65.1,29.97,WNW,292,0.0,0.0,100,0.00,OVC,,0.00,WeatherDisplay:10.37,2013-07-11 10:32:00,
2013-07-11 06:37:00,65.1,65.1,29.97,WNW,292,0.0,0.0,100,0.00,OVC,,0.00,WeatherDisplay:10.37,2013-07-11 10:37:00,
2013-07-11 06:42:00,65.1,65.1,29.97,WNW,292,0.3,3.5,100,0.00,OVC,,0.00,WeatherDisplay:10.37,2013-07-11 10:42:00,
2013-07-11 06:47:00,65.3,65.3,29.97,WNW,292,0.0,2.3,100,0.00,OVC,,0.00,WeatherDisplay:10.37,2013-07-11 10:47:00,
2013-07-11 06:52:00,65.3,65.3,29.97,WNW,292,0.0,0.0,100,0.00,OVC,,0.00,WeatherDisplay:10.37,2013-07-11 10:52:00,
2013-07-11 06:57:00,65.3,65.3,29.97,WNW,292,0.0,0.0,100,0.00,OVC,,0.00,WeatherDisplay:10.37,2013-07-11 10:57:00,
2013-07-11 07:02:00,65.3,65.3,29.97,WNW,292,0.0,0.0,100,0.00,OVC,,0.00,WeatherDisplay:10.37,2013-07-11 11:02:00,
2013-07-11 07:07:00,65.3,65.3,29.97,WNW,292,0.0,0.0,100,0.00,OVC,,0.00,WeatherDisplay:10.37,2013-07-11 11:07:00,
2013-07-11 07:12:00,65.5,65.5,29.97,WNW,292,0.0,0.0,100,0.00,OVC,,0.00,WeatherDisplay:10.37,2013-07-11 11:12:00,
2013-07-11 07:17:00,65.5,65.5,29.97,WNW,292,0.0,0.0,100,0.00,OVC,,0.00,WeatherDisplay:10.37,2013-07-11 11:17:00,
2013-07-11 07:22:00,65.5,65.5,29.97,WNW,292,0.0,0.0,100,0.00,OVC,,0.00,WeatherDisplay:10.37,2013-07-11 11:22:00,
2013-07-11 07:27:00,65.7,65.7,29.97,WNW,292,0.0,0.0,100,0.00,OVC,,0.00,WeatherDisplay:10.37,2013-07-11 11:27:00,
2013-07-11 07:32:00,65.7,65.7,29.98,WNW,292,0.0,0.0,100,0.00,OVC,,0.00,WeatherDisplay:10.37,2013-07-11 11:32:00,
2013-07-11 07:37:00,65.7,65.7,29.98,WNW,292,0.0,0.0,100,0.00,OVC,,0.00,WeatherDisplay:10.37,2013-07-11 11:37:00,
2013-07-11 07:42:00,65.8,65.8,29.98,WNW,292,0.0,0.0,100,0.00,OVC,,0.00,WeatherDisplay:10.37,2013-07-11 11:42:00,
2013-07-11 07:47:00,65.8,65.8,29.98,WNW,292,0.0,2.3,100,0.00,OVC,,0.00,WeatherDisplay:10.37,2013-07-11 11:47:00,
2013-07-11 07:52:00,65.8,65.8,29.98,WNW,292,0.0,0.0,100,0.00,OVC,,0.00,WeatherDisplay:10.37,2013-07-11 11:52:00,
2013-07-11 07:57:00,65.8,65.8,29.98,WNW,292,2.2,3.6,100,0.00,OVC,,0.00,WeatherDisplay:10.37,2013-07-11 11:57:00,
2013-07-11 08:02:00,65.8,65.8,29.98,WNW,292,0.0,2.3,100,0.00,OVC,,0.00,WeatherDisplay:10.37,2013-07-11 12:02:00,
2013-07-11 08:07:00,65.8,65.8,29.98,WNW,292,0.0,0.0,100,0.00,OVC,,0.00,WeatherDisplay:10.37,2013-07-11 12:07:00,
2013-07-11 08:12:00,65.7,65.7,29.98,WNW,292,2.0,3.5,100,0.00,OVC,,0.00,WeatherDisplay:10.37,2013-07-11 12:12:00,
2013-07-11 08:17:00,65.8,65.8,29.98,WNW,292,0.0,0.0,100,0.00,OVC,,0.00,WeatherDisplay:10.37,2013-07-11 12:17:00,
2013-07-11 08:22:00,65.8,65.8,29.98,WNW,292,1.0,3.5,100,0.00,OVC,,0.00,WeatherDisplay:10.37,2013-07-11 12:22:00,
2013-07-11 08:27:00,65.8,65.5,29.98,WNW,292,1.2,2.7,99,0.00,OVC,,0.00,WeatherDisplay:10.37,2013-07-11 12:27:00,
2013-07-11 08:32:00,66.0,65.7,29.98,WNW,292,0.0,0.0,99,0.00,OVC,,0.00,WeatherDisplay:10.37,2013-07-11 12:32:00,
2013-07-11 08:37:00,66.2,65.9,29.98,WNW,292,0.0,0.0,99,0.00,OVC,,0.00,WeatherDisplay:10.37,2013-07-11 12:37:00,
2013-07-11 08:42:00,66.2,65.9,29.98,WNW,292,0.0,0.0,99,0.00,OVC,,0.00,WeatherDisplay:10.37,2013-07-11 12:42:00,
2013-07-11 08:47:00,66.2,65.9,29.98,WNW,292,0.9,3.5,99,0.00,OVC,,0.00,WeatherDisplay:10.37,2013-07-11 12:47:00,
2013-07-11 08:52:00,66.4,66.1,29.98,WNW,292,0.0,0.0,99,0.00,OVC,,0.00,WeatherDisplay:10.37,2013-07-11 12:52:00,
2013-07-11 08:57:00,66.4,65.8,29.99,WNW,292,2.0,2.7,98,0.00,OVC,,0.00,WeatherDisplay:10.37,2013-07-11 12:57:00,
2013-07-11 09:03:00,66.6,66.0,29.99,WNW,292,0.0,0.0,98,0.00,OVC,,0.00,WeatherDisplay:10.37,2013-07-11 13:03:00,
2013-07-11 09:08:00,66.7,65.8,29.98,WNW,292,0.0,0.0,97,0.00,OVC,,0.00,WeatherDisplay:10.37,2013-07-11 13:08:00,
2013-07-11 09:14:00,66.9,66.0,29.98,WNW,292,0.0,0.0,97,0.00,OVC,,0.00,WeatherDisplay:10.37,2013-07-11 13:14:00,
2013-07-11 09:19:00,67.1,66.2,29.98,WNW,292,0.0,0.0,97,0.00,OVC,,0.00,WeatherDisplay:10.37,2013-07-11 13:19:00,
2013-07-11 09:24:00,67.1,65.9,29.98,WNW,292,0.0,0.0,96,0.00,OVC,,0.00,WeatherDisplay:10.37,2013-07-11 13:24:00,
2013-07-11 09:29:00,67.3,66.1,29.99,WNW,292,0.0,0.0,96,0.00,OVC,,0.00,WeatherDisplay:10.37,2013-07-11 13:29:00,
2013-07-11 09:34:00,67.6,66.1,29.99,WNW,292,0.0,0.0,95,0.00,OVC,,0.00,WeatherDisplay:10.37,2013-07-11 13:34:00,
2013-07-11 09:39:00,67.8,66.0,29.99,WNW,292,0.0,0.0,94,0.00,OVC,,0.00,WeatherDisplay:10.37,2013-07-11 13:39:00,
2013-07-11 09:44:00,68.2,66.1,29.98,WNW,292,0.9,2.7,93,0.00,OVC,,0.00,WeatherDisplay:10.37,2013-07-11 13:44:00,
2013-07-11 09:49:00,68.2,66.1,29.98,WNW,292,0.0,0.0,93,0.00,OVC,,0.00,WeatherDisplay:10.37,2013-07-11 13:49:00,
2013-07-11 09:54:00,68.4,66.6,29.98,WNW,292,0.0,0.0,94,0.00,OVC,,0.00,WeatherDisplay:10.37,2013-07-11 13:54:00,
2013-07-11 09:59:00,68.4,66.3,29.98,WNW,292,0.5,2.3,93,0.00,OVC,,0.00,WeatherDisplay:10.37,2013-07-11 13:59:00,
2013-07-11 10:04:00,68.9,66.8,29.99,WNW,292,0.0,0.0,93,0.00,OVC,,0.00,WeatherDisplay:10.37,2013-07-11 14:04:00,
2013-07-11 10:09:00,69.1,66.4,29.99,WNW,292,0.0,0.0,91,0.00,OVC,,0.00,WeatherDisplay:10.37,2013-07-11 14:09:00,
2013-07-11 10:16:00,69.8,66.7,29.99,WNW,292,1.9,4.6,90,0.00,OVC,,0.00,WeatherDisplay:10.37,2013-07-11 14:16:00,
2013-07-11 10:21:00,70.0,66.9,29.99,WNW,292,0.0,0.0,90,0.00,OVC,,0.00,WeatherDisplay:10.37,2013-07-11 14:21:00,
2013-07-11 10:26:00,70.2,66.1,29.99,WNW,292,4.4,4.6,87,0.00,OVC,,0.00,WeatherDisplay:10.37,2013-07-11 14:26:00,
2013-07-11 10:31:00,70.0,66.3,29.99,WNW,292,1.2,2.7,88,0.00,OVC,,0.00,WeatherDisplay:10.37,2013-07-11 14:31:00,
2013-07-11 10:37:00,69.8,67.1,29.99,WNW,292,1.9,2.7,91,0.00,OVC,,0.00,WeatherDisplay:10.37,2013-07-11 14:37:00,
2013-07-11 10:43:00,69.8,66.1,29.99,WNW,292,0.0,3.5,88,0.00,OVC,,0.00,WeatherDisplay:10.37,2013-07-11 14:43:00,
2013-07-11 10:49:00,69.6,66.2,29.99,WNW,292,0.0,0.0,89,0.00,OVC,,0.00,WeatherDisplay:10.37,2013-07-11 14:49:00,
2013-07-11 10:54:00,69.4,66.3,29.99,WNW,292,0.0,0.0,90,0.00,OVC,,0.00,WeatherDisplay:10.37,2013-07-11 14:54:00,
2013-07-11 10:59:00,69.3,66.2,29.99,WNW,292,0.0,0.0,90,0.00,OVC,,0.00,WeatherDisplay:10.37,2013-07-11 14:59:00,
2013-07-11 11:04:00,69.4,66.7,29.99,WNW,292,0.0,0.0,91,0.00,OVC,,0.00,WeatherDisplay:10.37,2013-07-11 15:04:00,
2013-07-11 11:09:00,68.9,66.2,29.99,WNW,292,0.0,0.0,91,0.00,OVC,,0.00,WeatherDisplay:10.37,2013-07-11 15:09:00,
2013-07-11 11:14:00,69.1,66.4,29.99,WNW,292,0.0,0.0,91,0.00,OVC,,0.00,WeatherDisplay:10.37,2013-07-11 15:14:00,
2013-07-11 11:19:00,69.4,67.0,29.99,WNW,292,0.3,2.7,92,0.00,OVC,,0.00,WeatherDisplay:10.37,2013-07-11 15:19:00,
2013-07-11 11:24:00,69.4,66.3,29.99,WNW,292,2.7,3.6,90,0.00,OVC,,0.00,WeatherDisplay:10.37,2013-07-11 15:24:00,
2013-07-11 11:29:00,69.3,66.2,29.99,WNW,292,0.0,0.0,90,0.00,OVC,,0.00,WeatherDisplay:10.37,2013-07-11 15:29:00,
2013-07-11 11:34:00,69.4,66.3,29.99,ESE,112,3.0,4.6,90,0.00,OVC,,0.00,WeatherDisplay:10.37,2013-07-11 15:34:00,
2013-07-11 11:39:00,70.0,66.9,29.99,ESE,112,1.4,3.6,90,0.00,OVC,,0.00,WeatherDisplay:10.37,2013-07-11 15:39:00,
2013-07-11 11:44:00,70.7,67.0,29.99,ESE,112,2.6,5.8,88,0.00,OVC,,0.00,WeatherDisplay:10.37,2013-07-11 15:44:00,
2013-07-11 11:49:00,70.5,66.8,29.99,ESE,112,3.9,6.1,88,0.00,OVC,,0.00,WeatherDisplay:10.37,2013-07-11 15:49:00,
2013-07-11 11:54:00,70.3,67.2,30.00,ESE,112,0.0,3.6,90,0.00,OVC,,0.00,WeatherDisplay:10.37,2013-07-11 15:54:00,
2013-07-11 11:59:00,70.7,67.0,30.00,ESE,112,0.0,0.0,88,0.00,OVC,,0.00,WeatherDisplay:10.37,2013-07-11 15:59:00,
2013-07-11 12:04:00,70.2,66.5,30.00,ESE,112,3.2,4.6,88,0.00,OVC,,0.00,WeatherDisplay:10.37,2013-07-11 16:04:00,
2013-07-11 12:10:00,70.6,67.2,30.00,ESE,112,0.0,4.0,89,0.00,OVC,OVC,0.00,WeatherDisplay:10.37,2013-07-11 16:10:00,
2013-07-11 12:15:00,71.4,67.3,29.99,ESE,112,2.1,4.6,87,0.00,OVC,,0.00,WeatherDisplay:10.37,2013-07-11 16:15:00,
2013-07-11 12:20:00,71.1,67.4,29.99,ESE,112,2.8,4.4,88,0.00,OVC,,0.00,WeatherDisplay:10.37,2013-07-11 16:20:00,
2013-07-11 12:25:00,70.9,67.2,29.99,ESE,112,3.2,4.6,88,0.00,OVC,,0.00,WeatherDisplay:10.37,2013-07-11 16:25:00,
2013-07-11 12:32:00,73.0,68.6,29.99,SE,135,4.6,6.1,86,0.00,OVC,,0.00,WeatherDisplay:10.37,2013-07-11 16:32:00,
2013-07-11 12:37:00,72.0,67.6,29.99,SSE,158,3.8,4.6,86,0.00,OVC,,0.00,WeatherDisplay:10.37,2013-07-11 16:37:00,
2013-07-11 12:42:00,72.9,67.8,29.99,SSE,158,1.7,3.5,84,0.00,OVC,,0.00,WeatherDisplay:10.37,2013-07-11 16:42:00,
2013-07-11 12:48:00,75.0,67.7,29.99,ESE,112,1.3,4.6,78,0.00,OVC,,0.00,WeatherDisplay:10.37,2013-07-11 16:48:00,
2013-07-11 12:53:00,74.3,67.7,29.99,NNE,22,7.4,8.1,80,0.00,OVC,,0.00,WeatherDisplay:10.37,2013-07-11 16:53:00,
2013-07-11 12:58:00,72.7,67.2,29.99,NE,45,4.1,5.8,83,0.00,OVC,,0.00,WeatherDisplay:10.37,2013-07-11 16:58:00,
2013-07-11 13:03:00,72.0,67.6,29.99,NE,45,0.3,3.5,86,0.00,BKN,,0.00,WeatherDisplay:10.37,2013-07-11 17:03:00,
2013-07-11 13:08:00,72.7,67.9,29.99,NE,45,0.0,2.3,85,0.00,BKN,,0.00,WeatherDisplay:10.37,2013-07-11 17:08:00,
2013-07-11 13:13:00,71.1,67.4,29.99,NE,45,2.7,4.6,88,0.00,BKN,,0.00,WeatherDisplay:10.37,2013-07-11 17:13:00,
2013-07-11 13:18:00,70.9,67.2,29.99,NE,45,1.5,4.6,88,0.00,BKN,,0.00,WeatherDisplay:10.37,2013-07-11 17:18:00,
2013-07-11 13:23:00,70.9,66.8,29.99,NE,45,2.0,2.7,87,0.00,BKN,,0.00,WeatherDisplay:10.37,2013-07-11 17:23:00,
2013-07-11 13:30:00,72.7,67.6,29.98,SSE,158,1.6,5.8,84,0.00,BKN,,0.00,WeatherDisplay:10.37,2013-07-11 17:30:00,
2013-07-11 13:36:00,73.6,68.1,29.98,South,180,4.1,5.8,83,0.00,BKN,,0.00,WeatherDisplay:10.37,2013-07-11 17:36:00,
2013-07-11 13:41:00,73.9,67.7,29.98,South,180,3.6,5.8,81,0.00,BKN,,0.00,WeatherDisplay:10.37,2013-07-11 17:41:00,
2013-07-11 13:46:00,73.6,67.0,29.98,SSE,158,3.0,4.6,80,0.00,BKN,,0.00,WeatherDisplay:10.37,2013-07-11 17:46:00,
2013-07-11 13:51:00,75.6,68.6,29.98,SSE,158,2.2,5.8,79,0.00,BKN,,0.00,WeatherDisplay:10.37,2013-07-11 17:51:00,
2013-07-11 13:57:00,75.0,68.0,29.98,West,270,3.8,6.1,79,0.00,BKN,,0.00,WeatherDisplay:10.37,2013-07-11 17:57:00,
2013-07-11 14:02:00,75.6,68.6,29.98,SE,135,2.3,4.4,79,0.00,SCT,,0.00,WeatherDisplay:10.37,2013-07-11 18:02:00,
2013-07-11 14:07:00,75.0,68.0,29.97,SSE,158,3.1,4.6,79,0.00,SCT,,0.00,WeatherDisplay:10.37,2013-07-11 18:07:00,
2013-07-11 14:13:00,74.1,67.2,29.97,SSE,158,3.9,5.8,79,0.00,SCT,,0.00,WeatherDisplay:10.37,2013-07-11 18:13:00,
2013-07-11 14:19:00,73.2,66.7,29.97,SSE,158,4.4,4.6,80,0.00,SCT,,0.00,WeatherDisplay:10.37,2013-07-11 18:19:00,
2013-07-11 14:24:00,74.1,67.2,29.97,SSE,158,0.0,2.3,79,0.00,SCT,,0.00,WeatherDisplay:10.37,2013-07-11 18:24:00,
2013-07-11 14:29:00,77.4,67.7,29.97,SSE,158,2.9,3.6,72,0.00,SCT,,0.00,WeatherDisplay:10.37,2013-07-11 18:29:00,
2013-07-11 14:34:00,77.7,68.0,29.97,West,270,3.7,5.8,72,0.00,SCT,,0.00,WeatherDisplay:10.37,2013-07-11 18:34:00,
2013-07-11 14:39:00,77.9,68.1,29.97,West,270,1.5,3.5,72,0.00,SCT,,0.00,WeatherDisplay:10.37,2013-07-11 18:39:00,
2013-07-11 14:44:00,74.7,67.0,29.97,West,270,2.7,3.6,77,0.00,SCT,,0.00,WeatherDisplay:10.37,2013-07-11 18:44:00,
2013-07-11 14:49:00,74.8,67.1,29.97,West,270,3.1,5.8,77,0.00,SCT,,0.00,WeatherDisplay:10.37,2013-07-11 18:49:00,
2013-07-11 14:55:00,74.7,65.5,29.97,West,270,3.0,6.0,73,0.00,SCT,SCT,0.00,WeatherDisplay:10.37,2013-07-11 18:55:00,
2013-07-11 15:00:00,75.6,65.1,29.97,East,90,4.4,4.6,70,0.00,SCT,,0.00,WeatherDisplay:10.37,2013-07-11 19:00:00,
2013-07-11 15:05:00,75.6,62.6,29.97,East,90,3.8,5.8,64,0.00,BKN,,0.00,WeatherDisplay:10.37,2013-07-11 19:05:00,
2013-07-11 15:10:00,75.9,64.6,29.97,East,90,5.3,6.1,68,0.00,BKN,,0.00,WeatherDisplay:10.37,2013-07-11 19:10:00,
2013-07-11 15:16:00,76.1,65.6,29.96,East,90,2.7,6.1,70,0.00,BKN,,0.00,WeatherDisplay:10.37,2013-07-11 19:16:00,
2013-07-11 15:21:00,75.7,65.2,29.96,East,90,2.2,4.6,70,0.00,BKN,,0.00,WeatherDisplay:10.37,2013-07-11 19:21:00,
2013-07-11 15:26:00,77.5,65.7,29.96,WSW,248,3.8,6.9,67,0.00,BKN,,0.00,WeatherDisplay:10.37,2013-07-11 19:26:00,
2013-07-11 15:31:00,77.4,65.6,29.96,NE,45,3.5,4.6,67,0.00,BKN,,0.00,WeatherDisplay:10.37,2013-07-11 19:31:00,
2013-07-11 15:36:00,77.7,63.6,29.96,NE,45,3.4,6.9,62,0.00,BKN,,0.00,WeatherDisplay:10.37,2013-07-11 19:36:00,
2013-07-11 15:42:00,76.6,63.5,29.96,East,90,5.4,8.1,64,0.00,BKN,,0.00,WeatherDisplay:10.37,2013-07-11 19:42:00,
2013-07-11 15:48:00,76.3,64.1,29.96,ENE,68,1.3,5.8,66,0.00,BKN,,0.00,WeatherDisplay:10.37,2013-07-11 19:48:00,
2013-07-11 15:55:00,76.5,64.7,29.95,NE,45,3.0,8.0,67,0.00,BKN,BKN,0.00,WeatherDisplay:10.37,2013-07-11 19:55:00,
2013-07-11 16:01:00,76.8,65.0,29.95,East,90,2.8,11.5,67,0.00,BKN,,0.00,WeatherDisplay:10.37,2013-07-11 20:01:00,
2013-07-11 16:08:00,76.3,65.0,29.96,East,90,4.7,6.1,68,0.00,BKN,,0.00,WeatherDisplay:10.37,2013-07-11 20:08:00,
2013-07-11 16:13:00,77.4,63.8,29.96,ENE,68,7.7,15.0,63,0.00,BKN,,0.00,WeatherDisplay:10.37,2013-07-11 20:13:00,
2013-07-11 16:18:00,76.1,63.9,29.96,NE,45,5.4,6.1,66,0.00,BKN,,0.00,WeatherDisplay:10.37,2013-07-11 20:18:00,
2013-07-11 16:24:00,77.2,63.2,29.96,ESE,112,11.4,12.9,62,0.00,BKN,,0.00,WeatherDisplay:10.37,2013-07-11 20:24:00,
2013-07-11 16:29:00,76.6,64.0,29.95,North,360,7.4,10.4,65,0.00,BKN,,0.00,WeatherDisplay:10.37,2013-07-11 20:29:00,
2013-07-11 16:34:00,75.9,63.7,29.95,NNW,338,7.3,10.4,66,0.00,BKN,,0.00,WeatherDisplay:10.37,2013-07-11 20:34:00,
2013-07-11 16:39:00,76.3,63.7,29.95,ESE,112,4.7,6.9,65,0.00,BKN,,0.00,WeatherDisplay:10.37,2013-07-11 20:39:00,
2013-07-11 16:44:00,76.1,63.0,29.96,East,90,7.3,9.2,64,0.00,BKN,,0.00,WeatherDisplay:10.37,2013-07-11 20:44:00,
2013-07-11 16:49:00,76.3,63.2,29.96,East,90,8.7,9.2,64,0.00,BKN,,0.00,WeatherDisplay:10.37,2013-07-11 20:49:00,
2013-07-11 16:54:00,76.3,63.2,29.96,East,90,8.7,9.2,64,0.00,BKN,,0.00,WeatherDisplay:10.37,2013-07-11 20:54:00,
2013-07-11 16:59:00,75.6,63.0,29.96,East,90,5.5,11.5,65,0.00,BKN,,0.00,WeatherDisplay:10.37,2013-07-11 20:59:00,
2013-07-11 17:05:00,76.8,64.1,29.96,ENE,65,7.0,10.0,65,0.00,BKN,BKN,0.00,WeatherDisplay:10.37,2013-07-11 21:05:00,
2013-07-11 17:11:00,77.0,65.6,29.96,NW,315,4.4,6.9,68,0.00,BKN,,0.00,WeatherDisplay:10.37,2013-07-11 21:11:00,
2013-07-11 17:19:00,76.8,65.0,29.96,West,270,6.7,13.8,67,0.00,BKN,,0.00,WeatherDisplay:10.37,2013-07-11 21:19:00,
2013-07-11 17:24:00,76.5,63.4,29.96,NE,45,4.7,9.5,64,0.00,BKN,,0.00,WeatherDisplay:10.37,2013-07-11 21:24:00,
2013-07-11 17:29:00,76.6,64.0,29.96,West,270,4.9,10.4,65,0.00,BKN,,0.00,WeatherDisplay:10.37,2013-07-11 21:29:00,
2013-07-11 17:34:00,76.1,63.5,29.96,North,360,5.8,9.2,65,0.00,BKN,,0.00,WeatherDisplay:10.37,2013-07-11 21:34:00,
2013-07-11 17:39:00,76.5,63.0,29.96,NNE,22,5.9,10.4,63,0.00,BKN,,0.00,WeatherDisplay:10.37,2013-07-11 21:39:00,
2013-07-11 17:44:00,77.4,62.9,29.96,NE,45,9.5,10.4,61,0.00,BKN,,0.00,WeatherDisplay:10.37,2013-07-11 21:44:00,
2013-07-11 17:49:00,77.9,63.8,29.96,East,90,3.6,10.4,62,0.00,BKN,,0.00,WeatherDisplay:10.37,2013-07-11 21:49:00,
2013-07-11 17:55:00,77.2,61.8,29.96,ENE,65,7.0,12.0,59,0.00,BKN,BKN,0.00,WeatherDisplay:10.37,2013-07-11 21:55:00,
2013-07-11 18:00:00,77.4,62.4,29.96,NNW,338,3.9,9.2,60,0.00,BKN,,0.00,WeatherDisplay:10.37,2013-07-11 22:00:00,
2013-07-11 18:08:00,78.1,63.1,29.96,East,90,6.7,9.2,60,0.00,BKN,,0.00,WeatherDisplay:10.37,2013-07-11 22:08:00,
2013-07-11 18:13:00,77.4,63.4,29.96,ENE,68,5.9,7.0,62,0.00,BKN,,0.00,WeatherDisplay:10.37,2013-07-11 22:13:00,
2013-07-11 18:19:00,76.8,62.8,29.95,NE,45,5.1,9.2,62,0.00,BKN,,0.00,WeatherDisplay:10.37,2013-07-11 22:19:00,
2013-07-11 18:24:00,76.5,63.0,29.95,ENE,68,5.4,8.1,63,0.00,BKN,,0.00,WeatherDisplay:10.37,2013-07-11 22:24:00,
2013-07-11 18:30:00,77.2,63.6,29.96,ENE,68,5.2,8.1,63,0.00,BKN,,0.00,WeatherDisplay:10.37,2013-07-11 22:30:00,
2013-07-11 18:35:00,77.2,63.6,29.96,East,90,5.9,6.1,63,0.00,BKN,,0.00,WeatherDisplay:10.37,2013-07-11 22:35:00,
2013-07-11 18:41:00,76.6,62.1,29.95,NNE,22,8.0,11.2,61,0.00,BKN,,0.00,WeatherDisplay:10.37,2013-07-11 22:41:00,
2013-07-11 18:46:00,76.6,63.1,29.95,NNW,338,6.0,7.0,63,0.00,BKN,,0.00,WeatherDisplay:10.37,2013-07-11 22:46:00,
2013-07-11 18:51:00,76.1,63.9,29.96,NNW,338,3.7,5.8,66,0.00,BKN,,0.00,WeatherDisplay:10.37,2013-07-11 22:51:00,
2013-07-11 18:57:00,76.8,63.2,29.96,NNE,22,7.3,9.5,63,0.00,BKN,,0.00,WeatherDisplay:10.37,2013-07-11 22:57:00,
2013-07-11 19:02:00,76.5,63.0,29.96,NE,45,4.6,5.8,63,0.00,SCT,,0.00,WeatherDisplay:10.37,2013-07-11 23:02:00,
2013-07-11 19:07:00,75.9,63.3,29.97,NE,45,5.7,8.1,65,0.00,SCT,,0.00,WeatherDisplay:10.37,2013-07-11 23:07:00,
2013-07-11 19:12:00,76.1,65.2,29.97,NE,45,2.0,3.6,69,0.00,SCT,,0.00,WeatherDisplay:10.37,2013-07-11 23:12:00,
2013-07-11 19:17:00,76.1,63.5,29.97,NE,45,2.2,3.6,65,0.00,SCT,,0.00,WeatherDisplay:10.37,2013-07-11 23:17:00,
2013-07-11 19:24:00,76.1,63.9,29.97,ENE,68,3.2,6.1,66,0.00,SCT,,0.00,WeatherDisplay:10.37,2013-07-11 23:24:00,
2013-07-11 19:29:00,75.9,63.7,29.97,ENE,68,5.6,7.0,66,0.00,SCT,,0.00,WeatherDisplay:10.37,2013-07-11 23:29:00,
2013-07-11 19:34:00,76.5,63.4,29.97,ENE,68,2.4,4.6,64,0.00,SCT,,0.00,WeatherDisplay:10.37,2013-07-11 23:34:00,
2013-07-11 19:39:00,77.4,64.3,29.97,ENE,68,2.1,3.6,64,0.00,SCT,,0.00,WeatherDisplay:10.37,2013-07-11 23:39:00,
2013-07-11 19:44:00,77.9,64.7,29.97,ENE,68,0.0,0.0,64,0.00,SCT,,0.00,WeatherDisplay:10.37,2013-07-11 23:44:00,
2013-07-11 19:50:00,76.8,63.3,29.97,NNE,31,5.0,6.0,63,0.00,SCT,SCT,0.00,WeatherDisplay:10.37,2013-07-11 23:50:00,
2013-07-11 19:55:00,75.7,64.4,29.97,ENE,62,0.0,5.0,68,0.00,SCT,SCT,0.00,WeatherDisplay:10.37,2013-07-11 23:55:00,
2013-07-11 20:00:00,75.0,64.1,29.97,East,90,0.0,0.0,69,0.00,SCT,,0.00,WeatherDisplay:10.37,2013-07-12 00:00:00,
2013-07-11 20:06:00,73.6,64.0,29.97,East,90,0.0,0.0,72,0.00,SCT,,0.00,WeatherDisplay:10.37,2013-07-12 00:06:00,
2013-07-11 20:11:00,72.1,64.5,29.97,East,90,3.0,3.6,77,0.00,SCT,,0.00,WeatherDisplay:10.37,2013-07-12 00:11:00,
2013-07-11 20:16:00,71.8,64.2,29.97,East,90,0.0,0.0,77,0.00,SCT,,0.00,WeatherDisplay:10.37,2013-07-12 00:16:00,
2013-07-11 20:21:00,70.9,63.7,29.97,East,90,0.0,0.0,78,0.00,SCT,,0.00,WeatherDisplay:10.37,2013-07-12 00:21:00,
2013-07-11 20:27:00,70.0,63.9,29.97,East,90,0.0,2.7,81,0.00,SCT,,0.00,WeatherDisplay:10.37,2013-07-12 00:27:00,
2013-07-11 20:32:00,69.4,63.3,29.96,East,90,0.0,0.0,81,0.00,SCT,,0.00,WeatherDisplay:10.37,2013-07-12 00:32:00,
2013-07-11 20:37:00,69.1,63.4,29.96,East,90,0.0,0.0,82,0.00,SCT,,0.00,WeatherDisplay:10.37,2013-07-12 00:37:00,
2013-07-11 20:42:00,68.5,63.1,29.96,East,90,0.0,0.0,83,0.00,SCT,,0.00,WeatherDisplay:10.37,2013-07-12 00:42:00,
2013-07-11 20:47:00,68.0,63.3,29.96,East,90,0.0,0.0,85,0.00,SCT,,0.00,WeatherDisplay:10.37,2013-07-12 00:47:00,
2013-07-11 20:53:00,67.3,63.3,29.96,East,90,0.0,0.0,87,0.00,SCT,,0.00,WeatherDisplay:10.37,2013-07-12 00:53:00,
2013-07-11 20:58:00,67.1,63.1,29.96,East,90,0.0,0.0,87,0.00,SCT,,0.00,WeatherDisplay:10.37,2013-07-12 00:58:00,
2013-07-11 21:03:00,66.9,62.9,29.96,East,90,0.0,0.0,87,0.00,SKC,,0.00,WeatherDisplay:10.37,2013-07-12 01:03:00,
2013-07-11 21:08:00,66.4,62.4,29.96,East,90,0.0,0.0,87,0.00,SKC,,0.00,WeatherDisplay:10.37,2013-07-12 01:08:00,
2013-07-11 21:13:00,66.0,62.3,29.96,East,90,0.0,0.0,88,0.00,SKC,,0.00,WeatherDisplay:10.37,2013-07-12 01:13:00,
2013-07-11 21:19:00,65.7,62.0,29.96,East,90,0.0,0.0,88,0.00,SKC,,0.00,WeatherDisplay:10.37,2013-07-12 01:19:00,
2013-07-11 21:24:00,65.7,62.0,29.96,East,90,0.0,0.0,88,0.00,SKC,,0.00,WeatherDisplay:10.37,2013-07-12 01:24:00,
2013-07-11 21:29:00,65.3,62.3,29.96,East,90,0.0,0.0,90,0.00,SKC,,0.00,WeatherDisplay:10.37,2013-07-12 01:29:00,
2013-07-11 21:34:00,65.3,62.0,29.96,East,90,0.0,0.0,89,0.00,SKC,,0.00,WeatherDisplay:10.37,2013-07-12 01:34:00,
2013-07-11 21:39:00,65.1,61.5,29.96,East,90,0.0,0.0,88,0.00,SKC,,0.00,WeatherDisplay:10.37,2013-07-12 01:39:00,
2013-07-11 21:44:00,64.4,61.4,29.97,East,90,0.0,0.0,90,0.00,SKC,,0.00,WeatherDisplay:10.37,2013-07-12 01:44:00,
2013-07-11 21:49:00,64.2,61.5,29.97,East,90,0.0,0.0,91,0.00,SKC,,0.00,WeatherDisplay:10.37,2013-07-12 01:49:00,
2013-07-11 21:54:00,63.7,61.6,29.97,East,90,0.0,0.0,93,0.00,SKC,,0.00,WeatherDisplay:10.37,2013-07-12 01:54:00,
2013-07-11 22:00:00,63.3,61.8,29.97,East,90,0.0,0.0,95,0.00,SKC,,0.00,WeatherDisplay:10.37,2013-07-12 02:00:00,
2013-07-11 22:05:00,63.1,61.6,29.98,East,90,0.0,0.0,95,0.00,SKC,,0.00,WeatherDisplay:10.37,2013-07-12 02:05:00,
2013-07-11 22:10:00,62.8,61.3,29.98,East,90,0.0,0.0,95,0.00,SKC,,0.00,WeatherDisplay:10.37,2013-07-12 02:10:00,
2013-07-11 22:15:00,62.8,61.3,29.98,East,90,0.0,0.0,95,0.00,SKC,,0.00,WeatherDisplay:10.37,2013-07-12 02:15:00,
2013-07-11 22:20:00,62.8,61.3,29.98,East,90,0.0,0.0,95,0.00,SKC,,0.00,WeatherDisplay:10.37,2013-07-12 02:20:00,
2013-07-11 22:25:00,62.4,60.9,29.98,East,90,0.0,0.0,95,0.00,SKC,,0.00,WeatherDisplay:10.37,2013-07-12 02:25:00,
2013-07-11 22:30:00,62.2,61.0,29.99,East,90,0.0,0.0,96,0.00,SKC,,0.00,WeatherDisplay:10.37,2013-07-12 02:30:00,
2013-07-11 22:35:00,62.2,61.0,29.99,East,90,0.0,0.0,96,0.00,SKC,,0.00,WeatherDisplay:10.37,2013-07-12 02:35:00,
2013-07-11 22:40:00,62.1,60.9,29.99,East,90,0.0,0.0,96,0.00,SKC,,0.00,WeatherDisplay:10.37,2013-07-12 02:40:00,
2013-07-11 22:45:00,61.9,60.7,29.99,East,90,0.0,0.0,96,0.00,SKC,,0.00,WeatherDisplay:10.37,2013-07-12 02:45:00,
2013-07-11 22:51:00,61.5,60.6,29.99,East,90,0.0,0.0,97,0.00,SKC,,0.00,WeatherDisplay:10.37,2013-07-12 02:51:00,
2013-07-11 22:57:00,61.2,60.6,29.99,East,90,0.0,0.0,98,0.00,SKC,,0.00,WeatherDisplay:10.37,2013-07-12 02:57:00,
2013-07-11 23:02:00,61.0,60.4,29.99,East,90,0.0,0.0,98,0.00,SKC,,0.00,WeatherDisplay:10.37,2013-07-12 03:02:00,
2013-07-11 23:07:00,61.0,60.4,29.99,East,90,0.0,0.0,98,0.00,SKC,,0.00,WeatherDisplay:10.37,2013-07-12 03:07:00,
2013-07-11 23:13:00,61.0,60.4,29.99,East,90,0.0,0.0,98,0.00,SKC,,0.00,WeatherDisplay:10.37,2013-07-12 03:13:00,
2013-07-11 23:18:00,61.0,60.4,29.99,East,90,0.0,0.0,98,0.00,SKC,,0.00,WeatherDisplay:10.37,2013-07-12 03:18:00,
2013-07-11 23:24:00,60.8,59.9,29.99,East,90,0.0,0.0,97,0.00,SKC,,0.00,WeatherDisplay:10.37,2013-07-12 03:24:00,
2013-07-11 23:29:00,60.6,59.7,30.00,East,90,0.0,0.0,97,0.00,SKC,,0.00,WeatherDisplay:10.37,2013-07-12 03:29:00,
2013-07-11 23:34:00,60.4,59.5,30.00,East,90,0.0,0.0,97,0.00,SKC,,0.00,WeatherDisplay:10.37,2013-07-12 03:34:00,
2013-07-11 23:39:00,60.4,59.8,30.00,East,90,0.0,0.0,98,0.00,SKC,,0.00,WeatherDisplay:10.37,2013-07-12 03:39:00,
2013-07-11 23:44:00,60.4,59.8,30.00,East,90,0.0,0.0,98,0.00,SKC,,0.00,WeatherDisplay:10.37,2013-07-12 03:44:00,
2013-07-11 23:49:00,60.4,59.8,30.00,East,90,0.0,0.0,98,0.00,SKC,,0.00,WeatherDisplay:10.37,2013-07-12 03:49:00,
2013-07-11 23:54:00,60.4,60.1,29.99,East,90,0.0,0.0,99,0.00,SKC,,0.00,WeatherDisplay:10.37,2013-07-12 03:54:00,
2013-07-11 23:59:00,60.6,60.3,29.99,East,90,0.0,0.0,99,0.00,SKC,,0.00,WeatherDisplay:10.37,2013-07-12 03:59:00,